User: anonymous   Login
Location: *
(38.9555°S, 57.3572°E)
Time: 03:01:16
(UTC+00:00)
Language:

Meteor 2-16 Rocket - Orbit

View from above orbital plane
View from above orbital plane
View from above satellite
View from above satellite

Ground track
Ground track

The orbit data is extracted from the following two-line orbital elements,

1 18313U 87068B   20266.78874733 +.00000020 +00000-0 +46581-5 0  9999
2 18313 082.5601 162.5154 0009728 183.8630 176.2457 13.84186245672165
Epoch (UTC): 22 September 2020 18:55:47
Eccentricity: 0.0009728
inclination: 82.5601°
perigee height: 942 km
apogee height: 956 km
right ascension of ascending node: 162.5154°
argument of perigee: 183.8630°
revolutions per day: 13.84186245
mean anomaly at epoch: 176.2457°
orbit number at epoch: 67216

The dashed part of the orbit path shows where the satellite is in the earth's shadow,  

DLR